FW8512 Weather Reports


time (UTC)temp
C
wind
direction
speed
KPH
gust
KPH
rain 1hr
cm
rain 24hr
cm
rain mn
cm
humidity
%
barometer
mb
20260504081543 10 135 11.3 30.6 0.00 0.00 0.00 34 1014.5
20260504060120 11 360 6.4 17.7 0.00 0.00 0.00 25 1011.2
20260504050106 13 351 12.9 27.4 0.00 0.00 0.00 25 1010.0
20260504044550 13 313 8.0 16.1 0.00 0.00 0.00 23 1009.3
20260504043047 14 25 4.8 11.3 0.00 0.00 0.00 23 1008.8
20260504041542 15 10 6.4 14.5 0.00 0.00 0.00 23 1008.5
20260504040040 15 2 12.9 20.9 0.00 0.00 0.00 22 1008.1
20260504034539 15 32 14.5 20.9 0.00 0.00 0.00 22 1007.8
20260504033039 16 41 16.1 25.7 0.00 0.00 0.00 21 1007.3
20260504031537 17 42 16.1 27.4 0.00 0.00 0.00 18 1006.8
20260504030134 16 33 11.3 19.3 0.00 0.00 0.00 14 1006.3
20260504024530 17 22 0.0 4.8 0.00 0.00 0.00 13 1006.0
20260504023024 19 21 1.6 4.8 0.00 0.00 0.00 10 1005.9
20260504021518 20 34 6.4 11.3 0.00 0.00 0.00 9 1005.7
20260504020014 21 290 8.0 16.1 0.00 0.00 0.00 8 1005.7
20260504014508 22 6 8.0 14.5 0.00 0.00 0.00 7 1005.7
20260504013113 22 338 8.0 14.5 0.00 0.00 0.00 7 1005.6
20260504011555 23 321 11.3 20.9 0.00 0.00 0.00 6 1005.7
20260504010109 23 281 14.5 22.5 0.00 0.00 0.00 6 1005.8
20260504004543 23 281 12.9 20.9 0.00 0.00 0.00 6 1006.0
20260504003040 23 252 11.3 27.4 0.00 0.00 0.00 5 1006.2
20260504001533 23 277 11.3 17.7 0.00 0.00 0.00 5 1006.4
20260504000038 24 283 16.1 33.8 0.00 0.00 0.00 5 1006.5
20260503234519 24 257 8.0 17.7 0.00 0.00 0.00 4 1006.5
20260503233019 23 244 16.1 27.4 0.00 0.00 0.00 5 1006.7
20260503231508 24 261 12.9 20.9 0.00 0.00 0.00 4 1006.9
20260503230005 24 243 8.0 22.5 0.00 0.00 0.00 4 1006.9
20260503224601 23 242 8.0 19.3 0.00 0.00 0.00 4 1007.1
20260503223056 23 269 1.6 17.7 0.00 0.00 0.00 4 1007.2
20260503221556 23 275 11.3 20.9 0.00 0.00 0.00 4 1007.5
20260503220047 23 330 12.9 25.7 0.00 0.00 0.00 4 1007.7
20260503214536 23 280 14.5 30.6 0.00 0.00 0.00 4 1007.8
20260503213033 22 282 4.8 20.9 0.00 0.00 0.00 4 1008.2
20260503211524 22 272 6.4 25.7 0.00 0.00 0.00 4 1008.6
20260503210038 22 227 14.5 25.7 0.00 0.00 0.00 5 1008.9
20260503204512 22 271 12.9 29.0 0.00 0.00 0.00 4 1009.0
20260503203008 22 68 9.7 30.6 0.00 0.00 0.00 4 1009.3
20260503201600 22 164 16.1 35.4 0.00 0.00 0.00 4 1009.8
20260503200054 21 250 9.7 19.3 0.00 0.00 0.00 5 1009.9
20260503194605 21 195 16.1 29.0 0.00 0.00 0.00 5 1010.1
20260503193044 21 297 12.9 24.1 0.00 0.00 0.00 7 1010.4
20260503191542 21 297 9.7 20.9 0.00 0.00 0.00 7 1010.8
20260503190043 20 45 17.7 53.1 0.00 0.00 0.00 8 1010.8
20260503184531 20 262 6.4 25.7 0.00 0.00 0.00 8 1011.1
20260503183126 20 31 11.3 22.5 0.00 0.00 0.00 9 1011.3
20260503181523 20 278 11.3 32.2 0.00 0.00 0.00 10 1011.6
20260503180018 20 276 9.7 29.0 0.00 0.00 0.00 10 1011.8
20260503174513 19 163 9.7 19.3 0.00 0.00 0.00 10 1011.8
20260503173010 18 275 8.0 22.5 0.00 0.00 0.00 12 1011.9
20260503171507 18 272 8.0 22.5 0.00 0.00 0.00 12 1012.0
20260503130107 3 31 0.0 0.0 0.00 0.00 0.00 61 1013.5